{"data":{"norad_id":62923,"epoch":"2026-05-24T22:54:42.558336Z","epoch_age_seconds":72205,"freshness":"FRESH","line1":"1 62923U 25027S   26144.95465924  .00021826  00000+0  79988-3 0  9991","line2":"2 62923  43.0021  58.3694 0001342 230.3447 129.7287 15.27598251 73205","mean_motion":15.27598251,"eccentricity":0.0001342,"inclination_deg":43.0021,"raan_deg":58.3694,"arg_perigee_deg":230.3447,"mean_anomaly_deg":129.7287,"bstar":0.00079988,"rev_number":7320,"period_min":94.265622460444,"perigee_km":482.07368268388,"apogee_km":483.91521036412,"semimajor_km":6861.131446524,"source":"CELESTRAK","updated_at":"2026-05-25T13:38:19.822621Z"}}